Flag for Iran Weather past 2 weeks in Esfahãn, Iran

Now
43 °F

Clear.


Feels Like: 40 °F
Forecast: 34 / 65 °F
Wind: 5 mph from Northwest

Location: Esfahan

Current Time: Mar 27, 2015 at 10:11:53 PM

Latest Report: Mar 27, 2015 at 9:30 PM


Visibility: 10 mi

Pressure: 30.18 "Hg

Humidity: 87%

Dew point: 39 °F

Location of EsfahãnLocation

Historic Weather in Esfahãn — Graph

°F

Esfahãn temperature yesterday

Maximum temperature yesterday: 68 °F (at 3:30 PM)
Minimum temperature yesterday: 36 °F (at 4:00 AM)
Average temperature yesterday: 51 °F

Past Weeks' High & Low Weather Summary

 TemperatureHumidityPressure
High70 °F (Mar 17, 2:00 PM)100% (Mar 19, 1:30 AM)30.21 "Hg (Mar 19, 1:30 AM)
Low25 °F (Mar 13, 4:00 AM)10% (Mar 17, 5:30 PM)29.86 "Hg (Mar 22, 3:00 PM)
Average51 °F51%30.07 "Hg
* Reported Mar 12 7:30 PM — Mar 27 9:00 PM, Esfahãn, Weather by CustomWeather, © 2015

Note: Actual official high and low records may vary slightly from our data, if they occured in-between our weather recording intervals... More about our weather records

Advertising

Esfahãn weather history for previous 24 hours

 ConditionsComfort  
Time TempWeatherWind HumidityBarometerVisibility
9:00 PM
Fri, Mar 27
43 °FClear.7 mph81%30.18 "Hg10 mi
8:30 PM43 °FSunny.9 mph87%30.18 "Hg10 mi
8:00 PM45 °FSunny.9 mph81%30.15 "Hg10 mi
7:30 PM48 °FSunny.12 mph71%30.15 "Hg10 mi
7:00 PM50 °FPassing clouds.5 mph67%30.15 "HgN/A
6:30 PM50 °FPassing clouds.7 mph62%30.15 "HgN/A
6:00 PM48 °FPassing clouds.9 mph71%30.15 "HgN/A
5:30 PM46 °FScattered clouds.9 mph87%30.15 "HgN/A
5:00 PM45 °FSprinkles. Scattered clouds.16 mph87%30.15 "Hg4 mi
4:30 PM46 °FHail. Scattered clouds.21 mph82%30.15 "Hg4 mi
4:00 PM54 °FPassing clouds.7 mph54%30.15 "HgN/A
3:30 PM54 °FScattered clouds.7 mph58%30.15 "Hg4 mi
3:00 PM54 °FScattered clouds.9 mph58%30.15 "Hg4 mi
2:30 PM54 °FPassing clouds.5 mph54%30.18 "HgN/A
2:00 PM50 °FScattered clouds.5 mph67%30.18 "HgN/A
1:30 PM50 °FPartly sunny.9 mph76%30.18 "Hg4 mi
1:00 PM48 °FPartly sunny.12 mph76%30.21 "Hg4 mi
12:30 PM46 °FBroken clouds.9 mph82%30.21 "Hg4 mi
12:00 PM46 °FMore clouds than sun.12 mph87%30.18 "Hg4 mi
11:30 AM45 °FLight rain. More clouds than sun.5 mph87%30.21 "Hg4 mi
11:00 AM45 °FFog.5 mph87%30.21 "Hg2 mi
10:30 AM43 °FFog.7 mph93%30.21 "Hg2 mi
10:00 AM45 °FFog.9 mph87%30.21 "Hg2 mi
9:30 AM45 °FLight rain. More clouds than sun.9 mph81%30.21 "Hg2 mi
9:00 AM45 °FMore clouds than sun.5 mph81%30.18 "Hg4 mi
8:30 AM45 °FDrizzle. More clouds than sun.7 mph81%30.18 "Hg4 mi
7:30 AM45 °FLight rain. Mostly cloudy.9 mph87%30.15 "Hg2 mi
7:00 AM45 °FLight rain. Overcast.9 mph87%30.12 "Hg2 mi
6:30 AM45 °FRain. Overcast.9 mph93%30.12 "Hg3 mi
6:00 AM45 °FDrizzle. Overcast.9 mph87%30.12 "Hg4 mi
5:30 AM45 °FLight rain. Overcast.12 mph87%30.09 "Hg4 mi
5:00 AM46 °FOvercast.12 mph76%30.09 "Hg4 mi
4:30 AM48 °FClear.14 mph66%30.09 "Hg10 mi
4:00 AM46 °FClear.14 mph66%30.09 "Hg10 mi
3:30 AM48 °FClear.9 mph66%30.09 "Hg10 mi
3:00 AM48 °FClear.9 mph66%30.07 "Hg10 mi
2:30 AM48 °FClear.9 mph62%30.07 "Hg10 mi
1:30 AM48 °FClear.5 mph58%30.07 "Hg10 mi
1:00 AM52 °FClear.7 mph47%30.07 "Hg10 mi
12:30 AM50 °FClear.12 mph54%30.07 "Hg10 mi
12:00 AM52 °FClear.9 mph47%30.07 "Hg10 mi
11:30 PM
Thu, Mar 26
52 °FClear.9 mph47%30.07 "Hg10 mi
11:00 PM52 °FClear.12 mph44%30.07 "Hg10 mi
10:30 PM54 °FClear.9 mph41%30.07 "Hg10 mi
10:00 PM54 °FClear.12 mph41%30.07 "Hg10 mi
Weather by CustomWeather, © 2015

See weather overviewHow to use our weather pages